This is the latest recevied weather packets stored in our database for station/object WX2NJ. If no packets are shown the sender has not sent any weather packets the latest 10 day(s).
| Time | Temp. | Humidity | Pressure | Rain* | Wind** | Luminosity | Snow |
|---|---|---|---|---|---|---|---|
| 1777663459 | 15.56° C | 52% | 1015.2 hPa | 0 mm | - | 574 W/m² | - |
| 1777663156 | 16.11° C | 50% | 1015.3 hPa | 0 mm | - | 577 W/m² | - |
| 1777662853 | 16.11° C | 54% | 1015.4 hPa | 0 mm | - | 650 W/m² | - |
| 1777662550 | 15.56° C | 53% | 1015.6 hPa | 0 mm | - | 484 W/m² | - |
| 1777662246 | 16.11° C | 53% | 1015.5 hPa | 0 mm | - | 624 W/m² | - |
| 1777661941 | 16.11° C | 53% | 1015.3 hPa | 0 mm | - | 575 W/m² | - |
| 1777661637 | 15.56° C | 54% | 1015.6 hPa | 0 mm | - | 632 W/m² | - |
| 1777661333 | 15.56° C | 54% | 1015.7 hPa | 0 mm | - | 728 W/m² | - |
| 1777661029 | 16.11° C | 53% | 1015.6 hPa | 0 mm | - | 696 W/m² | - |
| 1777660724 | 15° C | 55% | 1015.6 hPa | 0 mm | - | 771 W/m² | - |
| 1777660422 | 15.56° C | 54% | 1015.7 hPa | 0 mm | - | 783 W/m² | - |
| 1777660118 | 15.56° C | 56% | 1016.1 hPa | 0 mm | - | 661 W/m² | - |
| 1777659815 | 15.56° C | 53% | 1016 hPa | 0 mm | - | 663 W/m² | - |
| 1777659512 | 15.56° C | 53% | 1015.9 hPa | 0 mm | - | 719 W/m² | - |
| 1777659209 | 15° C | 56% | 1015.9 hPa | 0 mm | - | 716 W/m² | - |
| 1777658906 | 16.67° C | 54% | 1015.7 hPa | 0 mm | - | 721 W/m² | - |
| 1777658602 | 16.11° C | 54% | 1015.6 hPa | 0 mm | - | 749 W/m² | - |
| 1777658300 | 16.11° C | 52% | 1015.7 hPa | 0 mm | - | 733 W/m² | - |
| 1777657996 | 17.22° C | 47% | 1015.7 hPa | 0 mm | - | 733 W/m² | - |
| 1777657693 | 17.22° C | 39% | 1015.8 hPa | 0 mm | - | 711 W/m² | - |
| 1777657390 | 18.33° C | 38% | 1015.7 hPa | 0 mm | - | 743 W/m² | - |
| 1777657089 | 18.89° C | 37% | 1015.8 hPa | 0 mm | - | 789 W/m² | - |
| 1777656786 | 18.33° C | 40% | 1015.9 hPa | 0 mm | - | 799 W/m² | - |
| 1777656481 | 17.78° C | 42% | 1015.9 hPa | 0 mm | - | 833 W/m² | - |
| 1777656176 | 18.33° C | 43% | 1015.9 hPa | 0 mm | - | 669 W/m² | - |
* Rain latest hour (hover to see other rain measurements)
** Current wind speed in m/s (hover to see current wind gust speed)